User: anonymous   Login
Location: Unspecified
(0.0000°N, 0.0000°E)
Time: 07:14:29
(UTC+00:00)
Language:

Tancredo 1 - Orbit

View from above orbital plane
View from above orbital plane
View from above satellite
View from above satellite

Ground track
Ground track

The orbit data is extracted from the following two-line orbital elements,

1 41931U 98067KT  17177.85250883 +.00047576 +00000-0 +41678-3 0  9998
2 41931 051.6374 341.6284 0006010 301.4460 058.5949 15.68364944025118
Epoch (UTC): 26 June 2017 20:27:36
Eccentricity: 0.0006010
inclination: 51.6374°
perigee height: 359 km
apogee height: 367 km
right ascension of ascending node: 341.6284°
argument of perigee: 301.4460°
revolutions per day: 15.68364944
mean anomaly at epoch: 58.5949°
orbit number at epoch: 2511

The dashed part of the orbit path shows where the satellite is in the earth's shadow,  

DLR